G7NPW-1 Weather Reports


time (UTC)temp
C
wind
direction
speed
KPH
gust
KPH
rain 1hr
cm
rain 24hr
cm
rain mn
cm
humidity
%
barometer
mb
20260505114008 12 340 12.9 12.9 0.00 0.00 0.00 62 1013.9
20260505113007 12 340 12.9 12.9 0.00 0.00 0.00 62 1013.9
20260505111007 12 340 12.9 12.9 0.00 0.00 0.00 62 1013.9
20260505102007 12 30 11.3 11.3 0.00 0.00 0.00 62 1013.9
20260505095007 12 320 11.3 11.3 0.00 0.00 0.00 66 1013.9
20260505094504 12 320 11.3 11.3 0.00 0.00 0.00 66 1013.9
20260505091008 12 320 11.3 11.3 0.00 0.00 0.00 66 1013.9
20260505090504 12 320 11.3 11.3 0.00 0.00 0.00 66 1013.9
20260505083007 10 310 9.7 9.7 0.00 0.00 0.00 76 1013.9
20260505082504 10 310 9.7 9.7 0.00 0.00 0.00 76 1013.9
20260505081503 10 310 9.7 9.7 0.00 0.00 0.00 76 1013.9
20260505080004 10 310 9.7 9.7 0.00 0.00 0.00 76 1013.9
20260505075504 7 300 9.7 9.7 0.00 0.00 0.00 87 1013.9
20260505074008 7 300 9.7 9.7 0.00 0.00 0.00 87 1013.9
20260505072504 7 300 9.7 9.7 0.00 0.00 0.00 87 1013.9
20260505071504 7 300 9.7 9.7 0.00 0.00 0.00 87 1013.9
20260505063504 10 0 1.6 1.6 0.00 0.00 0.00 87 1015.9
20260505063007 10 0 1.6 1.6 0.00 0.00 0.00 87 1015.9
20260505062504 10 0 1.6 1.6 0.00 0.00 0.00 87 1015.9
20260505060503 10 0 1.6 1.6 0.00 0.00 0.00 87 1015.9
20260504210504 10 0 1.6 4.8 0.00 0.00 0.00 87 1015.9
20260504210004 10 0 1.6 4.8 0.00 0.00 0.00 87 1015.9
20260504205007 11 100 4.8 4.8 0.00 0.00 0.00 81 1014.9
20260504204504 11 100 4.8 4.8 0.00 0.00 0.00 81 1014.9
20260504202503 11 100 4.8 4.8 0.00 0.00 0.00 81 1014.9
20260504202007 11 100 4.8 4.8 0.00 0.00 0.00 81 1014.9
20260504201504 11 100 4.8 4.8 0.00 0.00 0.00 81 1014.9
20260504201006 11 100 4.8 4.8 0.00 0.00 0.00 81 1014.9
20260504193504 11 90 9.7 9.7 0.00 0.00 0.00 81 1014.9
20260504192504 11 90 9.7 9.7 0.00 0.00 0.00 81 1014.9
20260504190504 11 90 9.7 9.7 0.00 0.00 0.00 81 1014.9
20260504183504 12 90 4.8 4.8 0.00 0.00 0.00 76 1014.9
20260504183007 12 90 4.8 4.8 0.00 0.00 0.00 76 1014.9
20260504182007 12 90 4.8 4.8 0.00 0.00 0.00 76 1014.9
20260504180504 12 90 4.8 4.8 0.00 0.00 0.00 76 1014.9
20260504180004 12 90 4.8 4.8 0.00 0.00 0.00 76 1014.9
20260504175504 12 90 4.8 4.8 0.00 0.00 0.00 76 1014.9
20260504173504 12 90 4.8 4.8 0.00 0.00 0.00 76 1014.9
20260504173007 12 90 4.8 4.8 0.00 0.00 0.00 76 1014.9
20260504172503 12 90 4.8 4.8 0.00 0.00 0.00 76 1014.9
20260504171504 12 90 4.8 4.8 0.00 0.00 0.00 76 1014.9
20260504171007 12 90 4.8 4.8 0.00 0.00 0.00 76 1014.9
20260504151007 12 110 9.7 9.7 0.00 0.00 0.00 76 1014.9
20260504150504 12 110 9.7 9.7 0.00 0.00 0.00 76 1014.9
20260504141008 12 60 8.0 8.0 0.00 0.00 0.00 71 1015.9